EUTELSAT HOTBIRD 13C

Last updated on Fri Sep 11 2026 00:02:56 GMT+0000 (Coordinated Universal Time)

1 33459U 08065A 26253.50226282 -.00000301 00000+0 00000+0 0 9991 2 33459 3.1639 78.1114 0003549 99.4720 302.4858 1.00271469 48206
UTC large
Height (km)
Speed (km/s)
/
Latitude / Longitude
Inclination (degrees)
Orbital Period (minutes)
Azimuth
Elevation
Range (km)
Doppler Factor

Next 0 passes for location: London (51.5072 / 0.1276)

No passes found over London.
EUTELSAT HOTBIRD 13C